EHI
3 4 5 4 3 5 6 8 10 11 8 3 1 0 0 0 0 0 0 0 0 0 0 0 1 1 1 0 0 0 0 0 0 0 0 0 0 0 0 0 0 0 0
7 8 9 8 7 8 10 10 11 10 6 2 0 0 0 0 0 0 0 0 0 0 0 0 0 1 2 1 0 0 0 0 0 0 0 0 0 0 0 0 0 0 0
12 11 12 13 12 13 13 12 11 9 4 1 0 0 0 0 0 0 0 0 0 0 0 0 1 2 2 1 1 1 1 0 0 0 0 0 0 0 0 0 0 0 0
12 11 13 16 17 16 15 14 12 7 2 0 0 0 0 0 0 0 0 0 0 0 0 0 1 1 1 1 1 1 1 0 0 0 0 0 0 0 0 0 0 0 0
10 11 15 19 21 19 16 14 11 6 1 0 0 0 0 0 0 0 0 0 0 0 0 0 0 1 1 2 2 1 0 0 0 0 0 0 0 0 0 0 0 0 0
10 10 14 20 22 19 16 14 10 5 1 0 0 0 0 0 0 0 0 0 0 0 0 0 1 2 2 2 1 0 0 1 0 0 0 0 0 0 0 0 0 0 0
11 9 11 18 20 16 14 12 9 5 2 1 0 0 0 0 0 0 0 0 0 0 0 1 2 2 1 1 0 0 0 0 0 0 0 0 0 0 0 0 0 0 0
15 11 10 14 15 14 12 10 8 6 3 1 0 0 0 0 0 0 0 0 0 0 1 2 2 1 0 0 0 0 0 0 0 0 0 0 0 0 0 0 0 0 0
17 14 12 11 12 11 10 9 8 6 4 1 0 0 0 0 0 0 0 0 0 0 1 1 1 0 0 0 0 0 0 0 0 0 0 0 0 0 0 0 0 0 0
16 14 13 12 11 9 8 7 8 7 4 2 0 0 0 0 0 0 0 0 0 0 0 0 0 0 0 0 0 0 0 0 0 0 0 0 0 0 0 0 0 0 0
14 13 12 11 10 8 8 7 7 6 4 2 0 0 0 0 0 0 0 0 0 0 0 0 0 0 0 0 0 1 0 0 0 0 0 0 0 0 0 0 0 0 0
14 12 10 8 7 7 7 7 5 4 3 1 0 0 0 0 0 0 0 0 0 0 0 0 0 0 0 0 0 0 0 0 0 0 0 0 0 0 0 0 0 0 0
14 11 8 6 5 6 6 6 5 3 3 2 0 0 0 0 0 0 0 0 0 0 0 0 0 0 0 0 0 0 0 0 0 0 0 0 0 0 0 0 0 0 0
13 11 8 6 6 5 5 5 5 4 2 1 0 0 0 0 0 0 0 0 0 0 0 0 0 0 0 0 0 0 0 0 0 0 0 0 0 0 0 0 0 0 0
12 10 8 7 6 5 4 3 3 3 1 0 0 0 0 0 0 0 0 0 0 0 0 0 0 0 0 0 0 0 0 0 0 0 0 0 0 0 0 0 0 0 0
10 9 8 7 6 4 2 1 1 1 0 0 0 0 1 0 0 0 0 0 0 0 0 0 0 0 0 0 0 0 0 0 0 0 0 0 0 0 0 0 0 0 0
10 8 7 6 4 1 1 0 0 0 0 0 0 0 0 0 0 0 0 0 0 0 0 0 0 0 0 0 0 0 0 0 0 0 0 0 0 0 0 0 0 0 0
11 9 7 6 3 0 0 0 0 0 0 0 0 0 0 0 0 0 0 0 0 0 0 0 0 0 0 0 0 0 0 0 0 0 0 0 0 0 0 0 0 0 0
12 10 8 7 4 1 0 0 0 0 0 0 0 0 0 0 0 0 0 0 0 0 0 0 0 0 0 0 0 0 0 0 0 0 0 0 0 0 0 0 0 0 0
12 10 9 9 6 2 1 1 0 0 0 0 0 0 0 0 0 0 0 0 0 0 0 0 0 0 0 0 0 0 0 0 0 0 0 0 0 0 0 0 0 0 0
13 12 11 10 8 4 2 1 0 0 0 0 0 0 0 0 0 0 0 0 0 0 0 0 0 0 0 0 0 0 0 0 0 0 0 0 0 0 0 0 0 0 0
19 17 14 12 9 6 3 1 0 0 0 0 0 0 0 0 0 0 0 0 0 0 0 0 0 0 0 0 0 0 0 0 0 0 0 0 0 0 0 0 0 0 0
28 24 19 14 10 7 5 3 2 1 0 0 0 0 0 0 0 0 0 0 0 0 0 0 0 0 0 0 0 0 0 0 0 0 0 0 0 0 0 0 1 0 0
33 30 22 16 13 10 7 6 5 3 1 0 0 0 0 0 0 0 0 0 0 0 0 0 0 0 0 0 0 0 0 0 0 0 0 0 0 0 0 0 0 0 0
33 30 23 17 16 13 9 7 6 4 2 1 0 0 0 0 0 0 0 0 0 0 0 0 0 0 0 0 0 0 0 0 0 0 0 0 0 0 0 0 0 0 0
32 29 22 18 17 14 10 7 6 4 2 1 0 0 0 0 0 0 0 0 0 0 0 0 0 0 0 0 0 0 0 0 0 0 0 0 0 0 0 0 0 0 0
Wind_Speed
6 7 14 15 15 15 15 16 16 16 16 16 16 16 16 16 16 15 15 15 14 14 14 14 14 14 14 14 14 14 14 15 15 15 15 15 15 15 15 15 14 12 16
10 10 16 15 15 15 15 15 15 15 15 15 15 15 15 15 15 15 14 14 14 14 14 14 14 14 14 14 14 14 14 14 14 14 14 14 15 14 15 15 14 10 15
12 10 13 16 15 15 15 15 14 15 15 14 14 14 14 14 14 14 14 14 14 14 14 14 14 14 14 14 13 13 13 13 14 14 13 8 10 13 14 14 15 15 14
12 9 11 16 16 15 15 14 14 14 14 14 14 14 14 14 14 14 14 14 14 14 14 14 14 14 13 13 12 12 12 13 14 13 7 7 8 13 14 14 14 14 14
11 8 11 18 16 15 15 14 14 14 14 14 14 14 13 13 13 14 14 13 13 13 14 14 13 13 13 12 12 11 11 12 13 10 7 6 6 11 13 14 13 13 13
10 8 11 18 16 16 15 14 13 13 13 13 13 13 13 13 13 13 13 13 13 13 13 13 13 13 12 12 11 10 11 12 11 7 7 6 6 10 12 13 13 13 12
9 7 10 17 16 16 15 14 13 13 13 13 13 13 12 12 12 12 12 12 12 12 12 12 12 12 11 10 10 10 11 12 8 7 6 5 6 9 11 12 13 13 12
10 7 9 16 16 15 15 14 13 13 13 12 12 12 12 12 12 12 12 12 12 12 12 11 11 11 10 9 9 10 11 11 8 7 6 5 7 9 11 12 12 12 11
8 7 6 8 10 14 14 13 13 13 12 12 12 11 11 11 11 11 11 11 11 11 11 10 10 10 9 8 8 9 10 10 7 5 6 4 7 9 11 11 11 11 11
7 6 6 6 6 6 8 13 13 13 12 12 12 11 11 10 10 10 9 9 10 10 10 9 9 8 8 8 7 8 9 9 6 5 4 5 8 9 10 11 11 10 10
8 5 6 6 5 5 5 9 10 11 11 10 9 11 8 4 4 5 7 9 9 9 8 8 7 7 7 6 6 7 7 4 5 4 3 6 9 9 10 10 10 10 9
10 7 5 6 5 5 5 4 3 4 4 4 4 5 4 4 3 4 5 7 8 8 7 7 7 7 6 3 4 6 3 5 4 3 3 7 8 9 9 9 9 9 9
10 9 6 6 5 5 3 4 2 2 3 4 4 5 4 3 2 3 2 3 3 5 3 4 4 3 3 2 2 2 3 3 2 2 3 7 7 8 9 9 8 8 8
10 9 7 7 6 5 4 3 3 3 3 3 3 4 4 2 2 2 2 2 2 2 2 2 2 3 3 2 3 3 3 2 2 2 3 7 6 7 8 8 8 8 8
11 10 9 7 7 5 5 4 4 3 3 3 3 3 4 3 2 2 2 2 2 2 2 2 2 2 3 2 2 3 3 3 3 2 2 6 6 6 7 8 8 8 7
12 11 9 8 7 6 4 4 3 3 3 3 3 3 4 3 3 2 2 2 2 1 2 2 2 2 2 2 2 2 2 2 2 2 2 3 5 6 6 7 7 7 7
11 10 10 9 7 7 6 5 3 3 3 3 3 3 4 4 3 3 2 2 1 2 2 2 3 2 2 2 2 2 2 1 2 2 2 1 1 4 5 6 6 6 6
9 10 10 10 9 7 6 5 3 3 3 3 3 3 4 4 4 3 2 2 2 2 2 2 2 2 2 2 2 1 1 1 1 1 1 1 1 1 3 5 6 6 6
10 10 9 8 9 8 6 5 4 3 3 3 3 3 4 4 4 4 3 2 3 2 2 2 2 2 2 2 2 2 2 1 0 1 1 1 1 1 1 2 3 4 5
9 9 9 8 8 7 5 4 3 3 2 2 3 3 4 4 4 4 3 3 3 3 2 2 3 2 2 2 2 3 2 2 1 1 0 0 1 1 1 1 1 1 3
9 10 10 9 9 8 5 5 4 4 3 3 3 4 5 5 5 4 3 3 3 3 3 4 3 3 2 2 2 2 2 2 2 1 1 0 0 1 1 1 1 1 1
12 11 11 11 10 9 7 5 4 3 3 2 2 3 4 5 5 5 5 4 4 3 4 4 3 3 2 1 2 2 1 2 2 1 1 0 0 0 0 1 1 1 1
13 13 12 11 10 9 7 5 4 3 2 2 2 2 3 4 5 4 5 4 4 3 3 4 4 4 3 1 1 3 3 2 1 1 1 1 0 0 0 0 1 1 1
13 11 10 10 9 9 9 8 8 6 5 5 4 3 3 3 4 4 5 5 4 3 4 3 3 3 4 3 1 1 1 3 2 0 1 1 1 0 0 0 0 1 1
11 11 10 9 9 9 9 10 9 6 4 3 3 5 4 3 3 4 5 4 4 3 4 4 3 3 3 3 3 2 2 1 1 2 1 1 1 1 1 1 1 1 1
9 10 10 11 10 9 10 9 9 8 7 7 6 5 4 3 2 4 4 4 4 3 4 4 4 4 3 3 3 2 3 3 2 2 2 1 1 1 1 1 1 2 2
Wind_Direction
154 151 140 132 125 120 117 114 112 111 111 112 113 114 115 116 116 116 116 115 114 114 112 111 111 109 108 109 109 109 110 111 112 112 114 114 113 111 110 109 107 107 110
146 149 143 137 131 125 120 117 116 114 114 115 116 116 117 118 118 118 118 118 116 115 113 112 110 108 108 109 109 111 112 112 112 112 112 111 113 112 111 112 112 114 115
141 144 144 141 134 129 125 121 119 119 118 117 118 118 118 119 119 120 120 119 117 116 115 114 111 109 109 110 110 111 112 113 112 110 106 104 111 114 116 116 115 114 115
141 141 145 143 139 134 130 127 124 122 120 120 120 120 119 119 121 122 121 120 118 117 117 115 113 111 111 112 113 113 113 113 111 109 99 104 111 117 118 117 116 115 115
138 141 152 145 142 138 134 131 128 125 123 122 123 122 121 120 120 122 122 121 120 119 117 115 114 113 113 113 112 114 114 116 113 106 98 95 104 122 121 121 120 117 116
138 144 154 148 145 141 138 136 132 130 127 126 126 124 123 123 122 122 122 122 121 119 117 116 115 114 113 111 112 114 118 118 109 104 102 105 112 125 125 125 122 118 117
141 145 153 150 147 145 143 141 138 135 132 130 127 124 123 124 126 125 125 124 123 122 120 118 115 113 112 110 111 114 120 122 113 110 108 109 118 125 126 124 121 120 120
144 142 149 153 150 148 147 145 142 139 137 134 130 127 125 124 124 124 125 125 124 123 122 118 115 112 110 108 109 114 121 124 121 119 116 117 128 127 128 126 124 123 123
139 137 140 149 152 152 151 149 147 144 141 138 134 131 129 126 125 125 124 125 125 124 121 117 114 110 110 107 108 119 124 126 120 124 128 124 132 133 132 131 129 127 127
132 134 132 134 139 144 150 153 151 148 145 142 139 137 134 131 129 126 121 123 124 122 121 119 114 109 109 106 106 120 125 121 123 122 122 139 141 139 137 137 134 133 133
146 138 135 132 133 133 144 159 153 150 149 144 142 140 126 99 101 113 125 127 125 123 121 116 109 104 105 105 108 119 117 116 124 122 131 151 151 148 144 143 142 141 140
162 157 144 140 139 142 155 140 128 129 130 119 112 111 99 97 104 112 126 128 127 123 118 109 101 94 88 85 93 104 107 123 122 131 151 158 157 155 151 150 149 149 146
164 163 155 149 145 146 137 129 116 111 112 113 115 113 108 98 89 82 77 92 93 98 82 82 76 73 85 93 93 106 122 125 127 138 158 165 163 162 159 157 157 156 156
165 168 161 157 153 153 140 135 127 126 127 128 129 127 121 114 106 100 91 85 77 77 81 73 73 76 85 97 118 131 139 135 137 137 165 170 169 171 167 166 166 165 164
172 172 170 165 165 157 144 147 143 140 140 138 133 138 138 137 139 131 121 108 101 92 95 88 79 85 86 83 108 133 146 151 154 151 162 178 176 179 178 177 178 176 176
177 175 172 171 168 158 155 153 148 148 145 141 149 156 153 150 152 148 140 130 121 115 107 97 89 92 89 89 93 116 132 138 146 153 158 179 187 191 195 190 189 187 186
178 173 175 173 165 162 161 162 152 152 151 154 162 165 164 162 160 154 150 152 147 131 120 99 86 83 90 88 83 90 112 131 148 159 161 163 192 208 209 207 202 198 198
173 173 177 178 168 167 162 157 149 153 157 163 163 167 174 171 163 154 159 170 151 129 121 116 105 95 86 88 89 68 81 88 132 159 166 174 178 216 231 227 214 204 205
177 175 176 172 167 169 161 155 150 148 160 164 166 170 175 171 163 152 156 160 146 131 127 138 109 114 114 107 104 73 52 67 63 186 176 187 183 207 236 255 235 216 211
176 176 175 170 165 161 150 143 138 142 161 165 171 174 167 165 160 149 149 156 148 136 133 125 113 95 103 116 97 72 48 39 48 36 119 152 187 210 216 234 248 238 230
172 177 178 174 169 163 162 164 164 174 173 172 178 174 167 162 159 155 155 154 153 152 153 139 120 111 98 104 89 58 33 38 53 38 30 43 240 227 181 198 201 222 249
180 182 179 179 174 175 174 167 161 152 156 162 163 161 166 165 165 168 161 161 157 145 144 147 137 126 111 116 121 105 42 6 10 24 12 267 269 110 200 204 189 211 227
185 186 185 181 175 174 163 143 127 108 102 132 154 164 170 167 167 164 163 159 158 157 164 166 156 146 143 126 124 143 149 200 297 349 358 19 23 109 122 238 207 221 222
188 183 180 176 173 171 164 164 166 170 175 182 170 163 156 163 165 161 159 160 158 159 164 171 158 147 144 152 128 90 124 149 151 128 342 354 360 45 296 279 276 230 222
180 177 175 171 173 171 172 174 174 173 166 150 145 151 154 159 165 166 159 156 161 163 164 160 148 146 149 157 158 146 120 91 109 141 191 318 339 323 276 251 255 257 244
172 172 170 174 178 175 174 175 176 172 163 158 163 166 163 157 161 168 161 161 164 163 164 162 154 153 156 153 154 157 157 158 168 155 163 202 265 298 285 251 235 243 244